WX1N Weather Reports


Display with metric or nautical units.
time (UTC)temp
F
wind
direction
speed
MPH
gust
MPH
rain 1hr
in
rain 24hr
in
rain mn
in
humidity
%
barometer
mb
20260502194503 54 0 0.0 0.0 0.00 0.00 0.00 65 1008.6
20260502194003 54 0 0.0 0.0 0.00 0.00 0.00 65 1008.6
20260502193502 55 0 0.0 0.0 0.00 0.00 0.00 65 1008.6
20260502193003 55 0 0.0 0.0 0.00 0.00 0.00 65 1008.6
20260502192003 55 0 0.0 0.0 0.00 0.00 0.00 67 1008.5
20260502191503 55 0 0.0 0.0 0.00 0.00 0.00 68 1008.5
20260502191002 55 0 0.0 0.0 0.00 0.00 0.00 68 1008.6
20260502190503 55 0 0.0 0.0 0.00 0.00 0.00 65 1008.7
20260502190002 56 0 0.0 0.0 0.00 0.00 0.00 68 1008.6
20260502185503 55 0 0.0 0.0 0.00 0.00 0.00 68 1008.8
20260502185002 55 0 0.0 0.0 0.00 0.00 0.00 69 1008.8
20260502184503 55 0 0.0 0.0 0.00 0.00 0.00 69 1008.8
20260502184003 54 0 0.0 0.0 0.00 0.00 0.00 73 1008.9
20260502183503 54 0 0.0 0.0 0.00 0.00 0.00 71 1008.9
20260502183003 54 0 0.0 0.0 0.00 0.00 0.00 75 1008.9
20260502182502 53 0 0.0 0.0 0.00 0.00 0.00 77 1009.1
20260502182003 53 0 0.0 0.0 0.00 0.00 0.00 76 1009.2
20260502181502 53 0 0.0 0.0 0.00 0.00 0.00 77 1009.2
20260502181003 53 0 0.0 0.0 0.00 0.00 0.00 77 1009.3
20260502180503 53 0 0.0 0.0 0.00 0.00 0.00 80 1009.3
20260502170502 54 0 0.0 0.0 0.00 0.00 0.00 84 1009.4
20260502164002 48 0 0.0 0.0 0.00 0.00 0.00 87 1009.7
20260502163503 48 0 0.0 0.0 0.00 0.00 0.00 87 1009.8
20260502163002 48 0 0.0 0.0 0.00 0.00 0.00 86 1009.8
20260502162503 47 0 0.0 0.0 0.00 0.00 0.00 87 1009.8
20260502162002 47 0 0.0 0.0 0.00 0.00 0.00 88 1009.8
20260502161503 48 0 0.0 0.0 0.00 0.00 0.00 85 1010.0
20260502161003 49 0 0.0 0.0 0.00 0.00 0.00 84 1010.1
20260502160503 49 0 0.0 0.0 0.00 0.00 0.00 81 1010.1
20260502152002 51 0 0.0 0.0 0.00 0.00 0.00 84 1009.8
20260502151503 51 0 0.0 0.0 0.00 0.00 0.00 82 1009.9
20260502151002 51 0 0.0 0.0 0.00 0.00 0.00 82 1009.9
20260502150503 51 0 0.0 0.0 0.00 0.00 0.00 83 1010.0
20260502130502 46 0 0.0 0.0 0.00 0.00 0.00 81 1010.8
20260502123503 45 0 0.0 0.0 0.00 0.00 0.00 79 1010.6
20260502123003 45 0 0.0 0.0 0.00 0.00 0.00 78 1010.6
20260502122503 45 0 0.0 0.0 0.00 0.00 0.00 78 1010.8
20260502122003 44 0 0.0 0.0 0.00 0.00 0.00 79 1010.8
20260502121503 44 0 0.0 0.0 0.00 0.00 0.00 79 1010.8
20260502121003 45 0 0.0 0.0 0.00 0.00 0.00 78 1010.8
20260502120503 45 0 0.0 0.0 0.00 0.00 0.00 78 1010.8
20260502115503 44 0 0.0 0.0 0.00 0.00 0.00 77 1010.7
20260502115003 44 0 0.0 0.0 0.00 0.00 0.00 78 1010.7
20260502114503 44 0 0.0 0.0 0.00 0.00 0.00 78 1010.6
20260502114002 44 0 0.0 0.0 0.00 0.00 0.00 78 1010.6
20260502113503 44 0 0.0 0.0 0.00 0.00 0.00 78 1010.6
20260502113003 44 0 0.0 0.0 0.00 0.00 0.00 78 1010.6
20260502112503 43 0 0.0 0.0 0.00 0.00 0.00 78 1010.7
20260502112003 43 0 0.0 0.0 0.00 0.00 0.00 78 1010.8
20260502111503 43 0 0.0 0.0 0.00 0.00 0.00 78 1010.7
20260502111003 43 0 0.0 0.0 0.00 0.00 0.00 78 1010.7
20260502110502 43 0 0.0 0.0 0.00 0.00 0.00 78 1010.7
20260502110003 43 0 0.0 0.0 0.00 0.00 0.00 78 1010.6
20260502105503 43 0 0.0 0.0 0.00 0.00 0.00 78 1010.6
20260502105003 43 0 0.0 0.0 0.00 0.00 0.00 78 1010.5
20260502104503 43 0 0.0 0.0 0.00 0.00 0.00 78 1010.4
20260502104003 43 0 0.0 0.0 0.00 0.00 0.00 78 1010.3
20260502103503 43 0 0.0 0.0 0.00 0.00 0.00 78 1010.2
20260502103003 43 0 0.0 0.0 0.00 0.00 0.00 78 1010.2
20260502102503 43 0 0.0 0.0 0.00 0.00 0.00 78 1010.1
20260502102003 43 0 0.0 0.0 0.00 0.00 0.00 78 1010.2
20260502101503 43 0 0.0 0.0 0.00 0.00 0.00 79 1010.2
20260502101003 43 0 0.0 0.0 0.00 0.00 0.00 79 1010.3
20260502100502 43 0 0.0 0.0 0.00 0.00 0.00 79 1010.3
20260502091503 42 0 0.0 0.0 0.00 0.00 0.00 80 1010.5
20260502091003 42 0 0.0 0.0 0.00 0.00 0.00 80 1010.5
20260502090503 42 0 0.0 0.0 0.00 0.00 0.00 80 1010.5
20260502071503 42 0 0.0 0.0 0.00 0.00 0.00 83 1010.7
20260502071003 42 0 0.0 0.0 0.00 0.00 0.00 82 1010.8
20260502070502 42 0 0.0 0.0 0.00 0.00 0.00 83 1010.8
20260502070003 42 0 0.0 0.0 0.00 0.00 0.00 83 1010.9
20260502065503 42 0 0.0 0.0 0.00 0.00 0.00 83 1011.1
20260502065003 42 0 0.0 0.0 0.00 0.00 0.00 83 1010.9
20260502064503 42 0 0.0 0.0 0.00 0.00 0.00 84 1010.8
20260502064003 42 0 0.0 0.0 0.00 0.00 0.00 84 1011.2
20260502063503 42 0 0.0 0.0 0.00 0.00 0.00 85 1010.9
20260502063003 42 0 0.0 0.0 0.00 0.00 0.00 85 1010.9
20260502062503 43 0 0.0 0.0 0.00 0.00 0.00 85 1011.1
20260502062002 43 0 0.0 0.0 0.00 0.00 0.00 85 1011.3
20260502061503 43 0 0.0 0.0 0.00 0.00 0.00 86 1011.3
20260502061002 43 0 0.0 0.0 0.00 0.00 0.00 86 1011.5
20260502060503 43 0 0.0 0.0 0.00 0.00 0.00 86 1011.6
20260502060004 43 0 0.0 0.0 0.00 0.00 0.00 87 1011.7
20260502055503 43 0 0.0 0.0 0.00 0.00 0.00 87 1011.6
20260502055003 43 0 0.0 0.0 0.00 0.00 0.00 87 1011.6
20260502054503 43 0 0.0 0.0 0.00 0.00 0.00 87 1011.5
20260502054003 43 0 0.0 0.0 0.00 0.00 0.00 87 1011.4
20260502053503 43 0 0.0 0.0 0.00 0.00 0.00 87 1011.4
20260502053003 43 0 0.0 0.0 0.00 0.00 0.00 88 1011.4
20260502052504 43 0 0.0 0.0 0.00 0.00 0.00 88 1011.3
20260502052003 43 0 0.0 0.0 0.00 0.00 0.00 88 1011.2
20260502051503 43 0 0.0 0.0 0.00 0.00 0.00 88 1011.2
20260502051003 43 0 0.0 0.0 0.00 0.00 0.00 88 1011.2
20260502050503 43 0 0.0 0.0 0.00 0.00 0.00 87 1011.1
20260502050003 43 0 0.0 0.0 0.00 0.00 0.00 87 1011.1
20260502045503 43 0 0.0 0.0 0.00 0.00 0.00 87 1011.0
20260502045003 43 0 0.0 0.0 0.00 0.00 0.00 87 1010.8
20260502044503 43 0 0.0 0.0 0.00 0.00 0.00 87 1010.7
20260502044003 43 0 0.0 0.0 0.00 0.00 0.00 87 1010.7
20260502043503 43 0 0.0 0.0 0.00 0.00 0.00 88 1010.7
20260502043003 42 0 0.0 0.0 0.00 0.00 0.00 87 1010.7
20260502042504 42 0 0.0 0.0 0.00 0.00 0.00 87 1010.7
20260502042003 42 0 0.0 0.0 0.00 0.00 0.00 87 1010.6
20260502041503 42 0 0.0 0.0 0.00 0.00 0.00 87 1010.5
20260502041003 42 0 0.0 0.0 0.00 0.00 0.00 87 1010.4
20260502040503 42 0 0.0 0.0 0.00 0.00 0.00 87 1010.4
20260502040004 42 0 0.0 0.0 0.00 0.00 0.00 87 1010.3
20260502035503 42 0 0.0 0.0 0.00 0.00 0.00 87 1010.3
20260502035003 42 0 0.0 0.0 0.00 0.00 0.00 87 1010.2
20260502034503 42 0 0.0 0.0 0.00 0.00 0.00 87 1010.2
20260502034003 42 0 0.0 0.0 0.00 0.00 0.00 87 1010.2
20260502033503 41 0 0.0 0.0 0.00 0.00 0.00 87 1010.2
20260502033003 41 0 0.0 0.0 0.00 0.00 0.00 87 1010.2
20260502032503 41 0 0.0 0.0 0.00 0.00 0.00 87 1010.2
20260502032003 41 0 0.0 0.0 0.00 0.00 0.00 87 1010.2
20260502031503 41 0 0.0 0.0 0.00 0.00 0.00 87 1010.3
20260502031004 41 0 0.0 0.0 0.00 0.00 0.00 87 1010.3
20260502030503 41 0 0.0 0.0 0.00 0.00 0.00 87 1010.3
20260502030003 41 0 0.0 0.0 0.00 0.00 0.00 87 1010.1
20260502025503 41 0 0.0 0.0 0.00 0.00 0.00 87 1010.1
20260502025003 41 0 0.0 0.0 0.00 0.00 0.00 87 1010.2
20260502024503 41 0 0.0 0.0 0.00 0.00 0.00 87 1010.1
20260502024003 41 0 0.0 0.0 0.00 0.00 0.00 86 1010.2
20260502023503 41 0 0.0 0.0 0.00 0.00 0.00 85 1010.1
20260502023003 41 0 0.0 0.0 0.00 0.00 0.00 85 1010.1
20260502022503 42 0 0.0 0.0 0.00 0.00 0.00 86 1010.0
20260502022003 42 0 0.0 0.0 0.00 0.00 0.00 85 1010.0
20260502021503 42 0 0.0 0.0 0.00 0.00 0.00 84 1010.0
20260502021003 42 0 0.0 0.0 0.00 0.00 0.00 83 1010.0
20260502020503 42 0 0.0 0.0 0.00 0.00 0.00 83 1010.0
20260502020004 43 0 0.0 0.0 0.00 0.00 0.00 82 1010.1
20260502015503 43 0 0.0 0.0 0.00 0.00 0.00 82 1010.2
20260502015003 43 0 0.0 0.0 0.00 0.00 0.00 82 1010.2
20260502014503 44 0 0.0 0.0 0.00 0.00 0.00 82 1010.2
20260502014003 44 0 0.0 0.0 0.00 0.00 0.00 81 1010.1
20260502013504 45 0 0.0 0.0 0.00 0.00 0.00 81 1010.1
20260502013003 45 0 0.0 0.0 0.00 0.00 0.00 81 1010.1
20260502012503 45 0 0.0 0.0 0.00 0.00 0.00 78 1010.1
20260502012003 45 0 0.0 0.0 0.00 0.00 0.00 76 1010.1
20260502011503 46 0 0.0 0.0 0.00 0.00 0.00 77 1010.0
20260502011003 46 0 0.0 0.0 0.00 0.00 0.00 77 1009.9
20260502010503 46 0 0.0 0.0 0.00 0.00 0.00 77 1009.8
20260502010004 46 0 0.0 0.0 0.00 0.00 0.00 78 1009.8
20260502005503 46 0 0.0 0.0 0.00 0.00 0.00 79 1009.7
20260502005003 46 0 0.0 0.0 0.00 0.00 0.00 79 1009.7
20260502004503 46 0 0.0 0.0 0.00 0.00 0.00 78 1009.6
20260502004004 47 0 0.0 0.0 0.00 0.00 0.00 77 1009.5
20260502003503 47 0 0.0 0.0 0.00 0.00 0.00 76 1009.5
20260502003003 47 0 0.0 0.0 0.00 0.00 0.00 76 1009.4
20260502002503 47 0 0.0 0.0 0.00 0.00 0.00 74 1009.4
20260502002003 47 0 0.0 0.0 0.00 0.00 0.00 71 1009.3
20260502001503 47 0 0.0 0.0 0.00 0.00 0.00 69 1009.3
20260502001003 48 0 0.0 0.0 0.00 0.00 0.00 65 1009.1
20260502000503 48 0 0.0 0.0 0.00 0.00 0.00 66 1009.1
20260502000004 48 0 0.0 0.0 0.00 0.00 0.00 65 1009.0
20260501235503 49 0 0.0 0.0 0.00 0.00 0.00 66 1008.9
20260501235004 49 0 0.0 0.0 0.00 0.00 0.00 65 1008.8
20260501234503 50 0 0.0 0.0 0.00 0.00 0.00 64 1008.8
20260501234003 50 0 0.0 0.0 0.00 0.00 0.00 59 1008.7
20260501233503 51 0 0.0 0.0 0.00 0.00 0.00 56 1008.6
20260501233003 52 0 0.0 0.0 0.00 0.00 0.00 60 1008.5
20260501232504 53 0 0.0 0.0 0.00 0.00 0.00 58 1008.5
20260501232003 53 0 0.0 0.0 0.00 0.00 0.00 52 1008.3
20260501231503 54 0 0.0 0.0 0.00 0.00 0.00 49 1008.3
20260501231003 55 0 0.0 0.0 0.00 0.00 0.00 48 1008.3
20260501230504 56 0 0.0 0.0 0.00 0.00 0.00 49 1008.1
20260501230003 56 0 0.0 0.0 0.00 0.00 0.00 46 1008.2
20260501225503 56 0 0.0 0.0 0.00 0.00 0.00 46 1008.1
20260501225004 57 0 0.0 0.0 0.00 0.00 0.00 40 1008.1
20260501224503 57 0 0.0 0.0 0.00 0.00 0.00 40 1008.1
20260501224003 58 0 0.0 0.0 0.00 0.00 0.00 39 1008.1
20260501223503 58 0 0.0 0.0 0.00 0.00 0.00 38 1008.0
20260501223003 59 0 0.0 0.0 0.00 0.00 0.00 37 1008.0
20260501222504 59 0 0.0 0.0 0.00 0.00 0.00 34 1008.0
20260501222003 59 0 0.0 0.0 0.00 0.00 0.00 36 1008.0
20260501221504 60 0 0.0 0.0 0.00 0.00 0.00 38 1008.0
20260501221003 60 0 0.0 0.0 0.00 0.00 0.00 38 1008.0
20260501220503 59 0 0.0 0.0 0.00 0.00 0.00 37 1008.1
20260501220003 58 0 0.0 0.0 0.00 0.00 0.00 38 1008.0
20260501215503 58 0 0.0 0.0 0.00 0.00 0.00 42 1008.0
20260501215004 58 0 0.0 0.0 0.00 0.00 0.00 39 1008.0
20260501214503 59 0 0.0 0.0 0.00 0.00 0.00 36 1008.1
20260501214004 59 0 0.0 0.0 0.00 0.00 0.00 36 1008.0
20260501213503 59 0 0.0 0.0 0.00 0.00 0.00 35 1008.0
20260501213003 60 0 0.0 0.0 0.00 0.00 0.00 35 1008.0
20260501212503 60 0 0.0 0.0 0.00 0.00 0.00 35 1008.0
20260501212003 60 0 0.0 0.0 0.00 0.00 0.00 35 1007.9
20260501211504 60 0 0.0 0.0 0.00 0.00 0.00 39 1008.0
20260501211003 60 0 0.0 0.0 0.00 0.00 0.00 36 1008.0
20260501210503 60 0 0.0 0.0 0.00 0.00 0.00 40 1007.8
20260501210003 59 0 0.0 0.0 0.00 0.00 0.00 40 1007.8
20260501205504 59 0 0.0 0.0 0.00 0.00 0.00 38 1007.9
20260501205003 59 0 0.0 0.0 0.00 0.00 0.00 37 1007.8
20260501204503 59 0 0.0 0.0 0.00 0.00 0.00 37 1007.9
20260501204003 59 0 0.0 0.0 0.00 0.00 0.00 36 1007.8
20260501203503 59 0 0.0 0.0 0.00 0.00 0.00 37 1007.8
20260501203004 59 0 0.0 0.0 0.00 0.00 0.00 41 1007.7
20260501202503 59 0 0.0 0.0 0.00 0.00 0.00 38 1007.7
20260501202003 58 0 0.0 0.0 0.00 0.00 0.00 39 1007.8
20260501201503 58 0 0.0 0.0 0.00 0.00 0.00 39 1007.9
20260501201003 58 0 0.0 0.0 0.00 0.00 0.00 38 1007.9
20260501200503 58 0 0.0 0.0 0.00 0.00 0.00 39 1007.9
20260501200004 58 0 0.0 0.0 0.00 0.00 0.00 39 1008.0
20260501195503 59 0 0.0 0.0 0.00 0.00 0.00 37 1008.0
20260501195003 60 0 0.0 0.0 0.00 0.00 0.00 40 1008.1